Retour au catalogue

STARLINK-32225

ActifCommunicationsVLEO
NORAD 62036·PAYLOAD·🇺🇸 United States

Lancé Nov 21, 2024 depuis Cape Canaveral Space Force Station

Loading…

Prochains Passages (prochaines 24 heures)

TLE

FraisSource: CelesTrak SupGP

Époque: Sep 14, 2026, 22:23 UTC

1 62036C 24216E   26257.93312500  .00032131  00000+0  11640-2 0  2577
2 62036  42.9996 267.7459 0001471 265.9678 179.4869 15.27555227    10

Suivez STARLINK-32225 en temps réel avec AllMySat

Download on the App Store